DateTimeUTC,F1_A11,F1_S11,BsB_S11,BsG_S11,BsR_S11,BbsB_S11,BbsG_S11,BbsR_S11,BaB_A11,BaG_A11,BaR_A11,Tu_S11,T_S11,Uu_S11,U_S11,P_S11,T1_A11
2021-09-12T15:00:00Z,00000200,20000000,,,,,,,0000.03,-000.03,0000.28,17.9,24.8,01.5,01.0,0658.5,31.0
2021-09-12T15:01:00Z,00000200,20000000,,,,,,,0000.13,0000.15,-000.33,18.0,24.8,01.5,01.0,0658.5,31.0
2021-09-12T15:02:00Z,00000200,20000000,,,,,,,0000.03,-000.13,0000.25,18.0,24.9,01.5,01.0,0658.6,31.0
2021-09-12T15:03:00Z,00000200,60000000,,,,,,,0000.13,0000.18,0000.32,18.1,24.9,01.5,01.0,0658.6,31.0
2021-09-12T15:04:00Z,00000200,41000000,0001.86,0001.28,0001.19,0000.07,0000.23,0000.12,0000.53,0000.37,0000.19,18.3,24.8,01.4,01.0,0659.5,31.0
2021-09-12T15:05:00Z,00000200,01000000,0001.16,0001.74,0000.61,-000.21,0000.27,-000.07,0000.69,0000.30,0000.32,18.4,24.8,01.5,01.0,0659.6,31.0
2021-09-12T15:06:00Z,00000200,01000000,0001.42,0001.66,0000.99,-000.03,0000.10,-000.04,0000.47,0000.71,0000.05,18.3,24.8,01.5,01.0,0659.6,31.0
2021-09-12T15:07:00Z,00000200,01000000,0001.67,0001.67,0001.29,0000.14,0000.21,0000.10,0000.31,0000.45,0000.53,18.3,24.8,01.5,01.0,0659.6,31.0
2021-09-12T15:08:00Z,00000200,01000000,0001.99,0001.69,0001.03,0000.47,0000.24,-000.01,0000.26,0000.52,0000.65,18.3,24.7,01.5,01.0,0659.5,31.0
2021-09-12T15:09:00Z,00000200,01000000,0001.43,0001.47,0001.01,-000.29,0000.13,0000.15,0000.42,0000.66,0000.30,18.2,24.7,01.5,01.0,0659.4,31.0
2021-09-12T15:10:00Z,00000200,01000000,0001.42,0001.13,0001.34,0000.16,0000.34,0000.31,0000.97,0000.06,0000.34,18.2,24.7,01.6,01.0,0659.6,31.0
2021-09-12T15:11:00Z,00000200,01000000,0001.22,0001.46,0001.21,0000.18,0000.35,0000.26,0000.29,0001.00,0000.62,18.2,24.7,01.6,01.1,0659.6,31.0
2021-09-12T15:12:00Z,00000200,01000000,0001.64,0001.13,0001.07,0000.12,0000.16,0000.23,0000.88,0000.46,0000.56,18.2,24.7,01.6,01.1,0659.6,31.0
2021-09-12T15:13:00Z,00000200,01000000,0001.26,0001.58,0000.87,-000.44,0000.26,-000.07,-000.08,0000.45,0000.06,18.3,24.7,01.6,01.1,0659.6,31.0
2021-09-12T15:14:00Z,00000200,01000000,0001.46,0001.76,0001.15,-000.21,0000.16,0000.22,0000.86,0000.39,0000.40,18.4,24.8,01.6,01.1,0659.4,31.1
2021-09-12T15:15:00Z,00000200,01000000,0001.16,0001.00,0000.95,0000.11,-000.06,0000.67,0000.63,0000.47,0000.14,18.4,24.9,01.5,01.0,0659.5,31.1
2021-09-12T15:16:00Z,00000200,01000000,0001.52,0001.51,0001.06,-000.49,0000.05,0000.19,0000.09,0000.27,0000.46,18.5,24.9,01.5,01.0,0659.4,31.1
2021-09-12T15:17:00Z,00000200,01000000,0002.08,0001.32,0001.11,0000.26,0000.33,0000.36,0000.35,0000.39,0000.09,18.5,24.9,01.6,01.1,0659.5,31.0
2021-09-12T15:18:00Z,00000200,01000000,0001.66,0001.36,0001.00,0000.24,0000.23,0000.20,0000.64,0000.57,0000.54,18.5,24.9,01.5,01.0,0659.5,31.0
2021-09-12T15:19:00Z,00000200,01000000,0001.41,0001.57,0000.81,0000.06,0000.30,0000.15,0000.22,0000.23,0000.30,18.5,24.9,01.5,01.0,0659.5,31.0
2021-09-12T15:20:00Z,00000200,01000000,0002.04,0001.53,0001.18,-000.53,0000.70,0000.16,0000.52,0000.33,0000.43,18.4,24.9,01.5,01.0,0659.4,31.0
2021-09-12T15:21:00Z,00000200,01000000,0001.51,0001.51,0001.23,0000.39,0000.11,0000.27,0000.41,0000.54,0000.10,18.4,24.9,01.5,01.0,0659.5,31.0
2021-09-12T15:22:00Z,00000200,01000000,0001.76,0001.88,0001.52,0000.38,0000.22,0000.01,0000.41,0000.28,0000.20,18.4,24.8,01.5,01.0,0659.4,31.0
2021-09-12T15:23:00Z,00000200,01000000,0001.12,0001.52,0001.09,-000.21,0000.13,0000.05,0000.37,0000.41,0000.54,18.4,24.8,01.6,01.1,0659.3,31.0
2021-09-12T15:24:00Z,00000200,01000000,0002.56,0001.49,0001.02,0000.42,0000.00,0000.21,0000.64,0000.44,0000.26,18.3,24.8,01.6,01.0,0659.4,31.0
2021-09-12T15:25:00Z,00000200,01000000,0001.52,0001.51,0001.41,0000.25,0000.44,0000.58,0000.12,0000.16,0000.51,18.3,24.8,01.6,01.0,0659.3,31.0
2021-09-12T15:26:00Z,00000200,01000000,0001.41,0001.34,0001.04,0000.32,0000.31,0000.17,0001.27,0000.70,0000.75,18.3,24.8,01.5,01.0,0659.4,31.0
2021-09-12T15:27:00Z,00000200,01000000,0001.28,0001.22,0001.06,-000.06,0000.42,0000.13,0000.28,0001.06,0000.39,18.3,24.8,01.6,01.1,0659.3,31.0
2021-09-12T15:28:00Z,00000200,01000000,0001.52,0001.19,0001.07,0000.25,0000.34,0000.24,0001.18,0000.81,0000.33,18.4,24.9,01.5,01.0,0659.3,31.0
2021-09-12T15:29:00Z,00000200,01000000,0002.07,0001.50,0001.08,0000.49,0000.35,0000.15,0000.17,0000.37,0000.87,18.5,24.9,01.5,01.0,0659.2,31.1
2021-09-12T15:30:00Z,00000200,01000000,0001.27,0001.48,0001.17,0000.31,0000.32,0000.09,0000.52,0000.54,0000.13,18.6,24.9,01.6,01.1,0659.2,31.1
2021-09-12T15:31:00Z,00000200,01000000,0001.53,0001.46,0001.13,0000.29,0000.16,0000.43,0000.38,0000.39,0000.32,18.6,25.0,01.6,01.1,0659.2,31.0
2021-09-12T15:32:00Z,00000200,01000000,0001.09,0001.11,0000.97,0000.47,0000.10,0000.02,0000.38,0000.14,0000.42,18.6,24.9,01.6,01.1,0659.2,31.0
2021-09-12T15:33:00Z,00000200,01000000,0001.43,0001.32,0000.90,0000.18,0000.15,0000.02,0000.82,0000.66,0000.60,18.6,24.9,01.5,01.0,0659.0,31.0
2021-09-12T15:34:00Z,00000200,01000000,0001.75,0001.43,0001.09,-000.04,0000.43,0000.41,0000.26,0000.22,0000.19,18.5,24.9,01.7,01.1,0659.2,31.0
2021-09-12T15:35:00Z,00000200,01000000,0001.83,0001.73,0001.10,-000.17,0000.16,0000.08,0001.01,0001.09,0000.59,18.5,24.9,01.5,01.0,0659.2,31.0
2021-09-12T15:36:00Z,00000200,01000000,0002.01,0001.51,0000.76,0000.03,0000.36,0000.30,0000.42,0000.21,0000.44,18.5,24.9,01.6,01.1,0659.1,31.0
2021-09-12T15:37:00Z,00000200,01000000,0000.87,0001.26,0000.88,0000.19,0000.07,0000.16,0000.04,0000.32,-000.04,18.5,24.9,01.6,01.1,0659.1,31.0
2021-09-12T15:38:00Z,00000200,01000000,0000.65,0001.30,0000.92,-000.54,0000.06,0000.14,0000.43,0000.68,0000.55,18.4,24.9,01.5,01.0,0659.1,31.0
2021-09-12T15:39:00Z,00000200,01000000,0000.95,0000.93,0001.03,0000.30,-000.09,0000.07,0000.73,0000.30,0000.61,18.4,24.9,01.5,01.0,0659.2,31.0
2021-09-12T15:40:00Z,00000200,01000000,0001.36,0001.52,0001.08,0000.22,-000.13,0000.12,0000.34,0000.21,0000.44,18.4,24.8,01.5,01.0,0659.2,31.0
2021-09-12T15:41:00Z,00000200,01000000,0002.07,0001.39,0000.85,0000.20,0000.21,0000.06,0000.78,0000.98,0000.73,18.4,24.8,01.5,01.0,0659.2,31.0
2021-09-12T15:42:00Z,00000200,01000000,0001.26,0001.45,0000.88,0000.10,0000.23,0000.06,0000.59,0000.32,-000.20,18.4,24.8,01.6,01.0,0659.2,31.0
2021-09-12T15:43:00Z,00000200,01000000,0002.04,0001.35,0000.91,0000.29,0000.23,0000.07,0000.41,0000.61,0000.86,18.5,24.9,01.5,01.0,0659.3,31.0
2021-09-12T15:44:00Z,00000200,01000000,0001.75,0001.39,0000.98,-000.20,0000.05,0000.01,0000.42,0000.20,0000.06,18.5,24.9,01.5,01.0,0659.2,31.0
2021-09-12T15:45:00Z,00000200,01000000,0000.80,0001.12,0000.91,-000.06,0000.35,0000.17,0000.57,0000.43,0000.50,18.5,24.9,01.4,01.0,0659.1,31.0
2021-09-12T15:46:00Z,00000200,01000000,0001.15,0001.42,0000.92,-000.16,0000.39,0000.29,0000.07,0000.21,0000.27,18.6,24.9,01.4,01.0,0659.1,31.0
2021-09-12T15:47:00Z,00000200,01000000,0001.17,0001.09,0000.89,0000.30,0000.38,0000.37,0000.13,0000.39,-000.01,18.5,25.0,01.4,00.9,0659.0,31.0
2021-09-12T15:48:00Z,00000200,01000000,0000.76,0001.17,0001.01,-000.15,0000.38,0000.18,0000.50,0000.52,0000.64,18.5,24.9,01.4,01.0,0659.1,31.0
2021-09-12T15:49:00Z,00000200,01000000,0002.05,0001.06,0001.16,0000.10,0000.03,0000.37,0000.51,0000.23,0000.34,18.5,24.9,01.4,01.0,0659.0,31.0
2021-09-12T15:50:00Z,00000200,01000000,0001.68,0000.92,0001.42,-000.09,0000.11,0000.31,0000.22,0000.47,0000.15,18.5,24.9,01.4,01.0,0659.0,31.0
2021-09-12T15:51:00Z,00000200,01000000,0001.11,0001.01,0000.91,-000.11,0000.28,0000.16,0000.48,-000.18,0000.02,18.5,24.9,01.4,01.0,0659.1,31.0
2021-09-12T15:52:00Z,00000200,01000000,0000.54,0001.66,0001.13,-000.22,0000.09,0000.03,0000.53,0001.02,0000.36,18.4,24.9,01.5,01.0,0658.9,31.0
2021-09-12T15:53:00Z,00000200,01000000,0000.92,0001.08,0000.75,-000.14,-000.07,0000.22,0000.65,0000.24,0000.55,18.4,24.9,01.5,01.0,0659.0,31.0
2021-09-12T15:54:00Z,00000200,01000000,0001.44,0001.17,0001.23,0000.03,-000.07,0000.27,0000.59,0000.75,0000.84,18.4,24.8,01.5,01.0,0659.1,31.0
2021-09-12T15:55:00Z,00000200,01000000,0001.27,0001.42,0001.14,0000.05,0000.02,0000.45,0001.01,0001.10,0000.75,18.3,24.8,01.5,01.0,0659.0,31.0
2021-09-12T15:56:00Z,00000200,01000000,0002.44,0001.28,0001.07,-000.25,0000.31,0000.06,0000.75,0000.22,0000.51,18.3,24.8,01.5,01.0,0659.0,31.0
2021-09-12T15:57:00Z,00000200,40000000,,,,,,,-000.13,0000.72,0000.40,18.4,24.9,01.5,01.0,0658.7,31.0
2021-09-12T15:58:00Z,00000200,60000000,,,,,,,0000.11,-000.38,-000.18,18.2,25.0,01.5,01.0,0658.1,31.0
2021-09-12T15:59:00Z,00000200,20000000,,,,,,,0000.15,0000.36,0000.15,18.3,25.1,01.5,01.0,0658.0,31.0
